Back to catalog

STARLINK-11151

AliveCommunicationsVLEO
NORAD 60049·PAYLOAD·🇺🇸 United States

Launched Jun 8, 2024 from Vandenberg Space Force Base

Loading…

Next Passes (next 24 hours)

TLE

FreshSource: CelesTrak SupGP

Epoch: Sep 14, 2026, 21:25 UTC

1 60049C 24112M   26257.89284722  .00064023  00000+0  52863-3 0  2571
2 60049  53.1572  53.3277 0001233  61.7092 194.7138 15.69620008    16

Track STARLINK-11151 in real time with AllMySat

Download on the App Store